Tracking 23645 objects as of 21-Sep-2021
HD Live streaming from Space Station
objects crossing your sky now

SL-3 R/B

Track SL-3 R/B now!
10-day predictions


NORAD ID: 6257
Int'l Code: 1972-085B
Perigee: 836.7 km
Apogee: 920.5 km
Inclination: 81.3 °
Period: 102.4 minutes
Semi major axis: 7249 km
RCS: 6.5788 m2 (large)
Launch date: October 26, 1972
Source: Commonwealth of Independent States (former USSR) (CIS)
Launch site: PLESETSK MISSILE AND SPACE COMPLEX (PKMTR)

Note: This is a ROCKET BODY
aabbcc
Your satellite tracking list
Your tracking list is empty




NASA's NSSDC Master Catalog

Two Line Element Set (TLE):
1  6257U 72085B   21264.05030363  .00000036  00000-0  13401-4 0  9999
2  6257  81.2554  95.3577 0057827  68.4560 292.2759 14.06468899508320
Source of the keplerian elements: AFSPC